Terminal Aerodrome Forecast
Issued by NWS

Home | Current Version | Previous Version | Text Only | Print | Product List | Glossary On
Versions: 1 2 3 4 5 6 7 8 9 10 11 12 13 14 15 16 17
000
FTUS43 KFGF 060520
TAFDVL
TAF
KDVL 060520Z 0606/0706 34008KT 3SM HZ SCT040
      TEMPO 0608/0612 P6SM NSW SCT250
     FM061500 35015KT P6SM SCT250
      AMD LTD TO CLD VIS AND WIND=

USA.gov is the U.S. government's official web portal to all federal, state and local government web resources and services.